Weather History for KBFL - July, 2013

Change the Weather History Date:

Thursday, July 11, 2013

  Actual Average Record
Temperature  
Mean Temperature 87 °F 84 °F  
Max Temperature 98 °F 97 °F 110 °F (1961)
Min Temperature 75 °F 70 °F 51 °F (1906)
Degree Days  
Heating Degree Days 0    
Month to date heating degree days 0  
Since 1 June heating degree days 0  
Since 1 July heating degree days 0  
Cooling Degree Days 22    
Month to date cooling degree days 277  
Year to date cooling degree days 1126  
Since 1 June cooling degree days 747  
Growing Degree Days 37 (Base 50)    
Moisture  
Dew Point 44 °F    
Average Humidity 26    
Maximum Humidity 36    
Minimum Humidity 15    
Precipitation  
Precipitation 0.00 in 0.00 in 0.01 in (1936)
Month to date precipitation 0.00 0.00  
Year to date precipitation 2.36 4.39  
Since 1 July precipitation 0.00 0.00  
Snow  
Snow 0.00 in - - ()
Month to date snowfall 0.0  
Since 1 June snowfall 0.0  
Since 1 July snowfall 0.0  
Snow Depth 0.00 in    
Sea Level Pressure  
Sea Level Pressure 29.83 in    
Wind  
Wind Speed 6 mph (NW)    
Max Wind Speed 17 mph    
Max Gust Speed 23 mph    
Visibility 10 miles    
Events      
T = Trace of Precipitation, MM = Missing Value Source: NWS Daily Summary

Daily Weather History Graph

Daily Weather History Graph

Search for Another Location

Airport or City:

Trip Planner

Search our weather history database for the weather conditions in past years. The results will help you decide how hot, cold, wet, or windy it might be!

Date:

Astronomy

Jul. 11, 2013 Rise Set
Actual Time 5:50 AM PDT 8:13 PM PDT
Civil Twilight 5:20 AM PDT 8:42 PM PDT
Nautical Twilight 4:44 AM PDT 9:18 PM PDT
Astronomical Twilight 4:04 AM PDT 9:58 PM PDT
Moon 9:04 AM PDT (7/11) 10:06 PM PDT (7/11)
Length of Visible Light 15h 21m
Length of Day
14h 22m
Waxing Crescent, 11% of the Moon is Illuminated
Jul 11
Waxing Crescent
Jul 15
First Quarter
Jul 22
Full
Jul 29
Last Quarter
Aug 6
New

Hourly Weather History & Observations

Time (PDT) Temp. Dew Point Humidity Pressure Visibility Wind Dir Wind Speed Gust Speed Precip Events Conditions
12:54 AM 87.1 °F 33.1 °F 15% 29.84 in 10.0 mi West 5.8 mph - N/A   Clear
1:54 AM 84.0 °F 37.0 °F 19% 29.83 in 10.0 mi WNW 6.9 mph - N/A   Clear
2:54 AM 80.1 °F 43.0 °F 27% 29.81 in 10.0 mi NNW 8.1 mph - N/A   Clear
3:54 AM 81.0 °F 43.0 °F 26% 29.81 in 10.0 mi NNW 6.9 mph - N/A   Clear
4:54 AM 80.1 °F 45.0 °F 29% 29.83 in 10.0 mi Calm Calm - N/A   Clear
5:54 AM 79.0 °F 48.9 °F 35% 29.85 in 10.0 mi West 3.5 mph - N/A   Clear
6:54 AM 77.0 °F 48.9 °F 37% 29.86 in 10.0 mi Calm Calm - N/A   Clear
7:54 AM 79.0 °F 46.9 °F 32% 29.86 in 10.0 mi Calm Calm - N/A   Clear
8:54 AM 81.0 °F 48.0 °F 31% 29.86 in 10.0 mi SSE 5.8 mph - N/A   Clear
9:54 AM 81.0 °F 48.0 °F 31% 29.86 in 10.0 mi South 3.5 mph - N/A   Clear
10:54 AM 82.0 °F 48.0 °F 30% 29.88 in 10.0 mi SSE 6.9 mph - N/A   Clear
11:54 AM 82.9 °F 46.0 °F 27% 29.87 in 10.0 mi SE 4.6 mph - N/A   Clear
12:54 PM 87.1 °F 45.0 °F 23% 29.86 in 10.0 mi SSE 4.6 mph - N/A   Clear
1:54 PM 91.0 °F 43.0 °F 19% 29.84 in 10.0 mi Variable 3.5 mph - N/A   Clear
2:54 PM 96.1 °F 43.0 °F 16% 29.81 in 10.0 mi Calm Calm - N/A   Clear
3:54 PM 95.0 °F 45.0 °F 18% 29.79 in 10.0 mi NW 6.9 mph - N/A   Clear
4:54 PM 96.1 °F 44.1 °F 17% 29.78 in 10.0 mi WNW 9.2 mph - N/A   Clear
5:54 PM 97.0 °F 41.0 °F 14% 29.76 in 10.0 mi NW 6.9 mph - N/A   Clear
6:54 PM 95.0 °F 41.0 °F 15% 29.76 in 10.0 mi NW 6.9 mph - N/A   Clear
7:54 PM 91.9 °F 41.0 °F 17% 29.77 in 10.0 mi WNW 13.8 mph 23.0 mph N/A   Clear
8:54 PM 84.9 °F 42.1 °F 22% 29.79 in 10.0 mi NNW 13.8 mph - N/A   Clear
9:54 PM 82.0 °F 42.1 °F 24% 29.82 in 10.0 mi NNW 10.4 mph - N/A   Clear
10:54 PM 80.1 °F 43.0 °F 27% 29.84 in 10.0 mi North 10.4 mph - N/A   Clear
11:54 PM 79.0 °F 43.0 °F 28% 29.86 in 10.0 mi North 5.8 mph - N/A   Clear